TimeEDT,TemperatureF,Dew PointF,Humidity,Sea Level PressureIn,VisibilityMPH,Wind Direction,Wind SpeedMPH,Gust SpeedMPH,PrecipitationIn,Events,Conditions,WindDirDegrees,DateUTC
12:45 AM,59.0,55.4,88,30.09,10.0,WNW,5.8,-,N/A,,Clear,300,2013-08-11 04:45:00
1:45 AM,59.0,57.2,94,30.10,10.0,West,5.8,-,N/A,,Clear,280,2013-08-11 05:45:00
3:45 AM,57.2,57.2,100,30.11,10.0,WNW,5.8,-,N/A,,Clear,300,2013-08-11 07:45:00
4:45 AM,55.4,53.6,94,30.12,10.0,Calm,Calm,-,N/A,,Clear,0,2013-08-11 08:45:00
5:45 AM,53.6,53.6,100,30.13,10.0,West,5.8,-,N/A,,Clear,280,2013-08-11 09:45:00
6:45 AM,55.4,53.6,94,30.14,20.0,Calm,Calm,-,N/A,,Clear,0,2013-08-11 10:45:00
7:45 AM,60.8,55.4,82,30.15,20.0,Calm,Calm,-,N/A,,Clear,0,2013-08-11 11:45:00
8:45 AM,66.2,57.2,73,30.15,20.0,Calm,Calm,-,N/A,,Clear,0,2013-08-11 12:45:00
9:45 AM,66.2,55.4,68,30.15,20.0,Calm,Calm,-,N/A,,Clear,0,2013-08-11 13:45:00
10:45 AM,69.8,55.4,60,30.15,20.0,Calm,Calm,-,N/A,,Clear,0,2013-08-11 14:45:00
11:45 AM,71.6,55.4,57,30.14,20.0,WSW,8.1,-,N/A,,Partly Cloudy,250,2013-08-11 15:45:00
12:45 PM,73.4,55.4,53,30.11,20.0,Calm,Calm,-,N/A,,Partly Cloudy,0,2013-08-11 16:45:00
2:45 PM,77.0,59.0,54,30.08,20.0,WSW,5.8,-,N/A,,Scattered Clouds,240,2013-08-11 18:45:00
3:45 PM,75.2,60.8,61,30.07,20.0,NW,6.9,-,N/A,,Scattered Clouds,320,2013-08-11 19:45:00
4:45 PM,75.2,60.8,61,30.07,20.0,WSW,8.1,-,N/A,,Scattered Clouds,250,2013-08-11 20:45:00
5:45 PM,75.2,60.8,61,30.06,20.0,WSW,8.1,-,N/A,,Scattered Clouds,240,2013-08-11 21:45:00
6:45 PM,75.2,62.6,65,30.04,20.0,WSW,5.8,-,N/A,,Partly Cloudy,250,2013-08-11 22:45:00
7:45 PM,73.4,62.6,69,30.05,20.0,SW,5.8,-,N/A,,Partly Cloudy,230,2013-08-11 23:45:00
8:45 PM,68.0,62.6,83,30.06,10.0,WSW,5.8,-,N/A,,Partly Cloudy,240,2013-08-12 00:45:00
9:45 PM,68.0,62.6,83,30.07,10.0,Calm,Calm,-,N/A,,Partly Cloudy,0,2013-08-12 01:45:00
10:45 PM,66.2,60.8,83,30.07,10.0,Calm,Calm,-,N/A,,Scattered Clouds,0,2013-08-12 02:45:00
11:45 PM,66.2,62.6,88,30.06,10.0,Calm,Calm,-,N/A,,Scattered Clouds,0,2013-08-12 03:45:00